Tracking 18957 objects as of 22-Jan-2018
HD Live streaming from Space Station
objects crossing your sky now

NIMBUS 2 DEB

Track NIMBUS 2 DEB now!
10-day predictions


NORAD ID: 24956
Int'l Code: 1966-040C
Perigee: 1,025.5 km
Apogee: 1,104.8 km
Inclination: 100.5 °
Period: 106.4 minutes
Semi major axis: 7436 km
RCS: 0.027 m2 (small)
Launch date: May 15, 1966
Source: United States (US)
Launch site: AIR FORCE WESTERN TEST RANGE (AFWTR)

Note: This is SATELLITE DEBRIS
aabbcc
Your satellite tracking list
Your tracking list is empty




NASA's NSSDC Master Catalog

Two Line Element Set (TLE):
1 24956U 66040C   18019.35158104 +.00000663 +00000-0 +10442-2 0  9996
2 24956 100.4703 332.8691 0053312 344.5814 169.7233 13.53892078522712
Source of the keplerian elements: AFSPC